This is the latest recevied weather packets stored in our database for station/object XW7RMR. If no packets are shown the sender has not sent any weather packets the latest 10 day(s).
| Time | Temp. | Humidity | Pressure | Rain* | Wind** | Luminosity | Snow |
|---|---|---|---|---|---|---|---|
| 1777866588 | 26.11° C | 39% | 1005.5 hPa | 0 mm | - | 0 W/m² | - |
| 1777866286 | 26.11° C | 38% | 1005.5 hPa | 0 mm | - | 0 W/m² | - |
| 1777865983 | 26.11° C | 38% | 1005.3 hPa | 0 mm | - | 0 W/m² | - |
| 1777865680 | 26.67° C | 39% | 1005.3 hPa | 0 mm | - | 1 W/m² | - |
| 1777865378 | 26.67° C | 38% | 1005.2 hPa | 0 mm | - | 1 W/m² | - |
| 1777865074 | 26.67° C | 37% | 1005.4 hPa | 0 mm | - | 2 W/m² | - |
| 1777864771 | 27.22° C | 37% | 1005.2 hPa | 0 mm | - | 4 W/m² | - |
| 1777864468 | 27.22° C | 35% | 1005.3 hPa | 0 mm | - | 6 W/m² | - |
| 1777864165 | 28.33° C | 34% | 1005.1 hPa | 0 mm | - | 9 W/m² | - |
| 1777863862 | 28.89° C | 32% | 1005.3 hPa | 0 mm | - | 12 W/m² | - |
| 1777863558 | 29.44° C | 30% | 1005 hPa | 0 mm | - | 16 W/m² | - |
| 1777863255 | 30° C | 28% | 1005 hPa | 0 mm | - | 19 W/m² | - |
| 1777862952 | 30.56° C | 27% | 1005 hPa | 0 mm | - | 22 W/m² | - |
| 1777862649 | 30.56° C | 26% | 1004.8 hPa | 0 mm | - | 26 W/m² | - |
| 1777862346 | 31.11° C | 25% | 1004.9 hPa | 0 mm | - | 29 W/m² | - |
| 1777862042 | 31.67° C | 24% | 1004.9 hPa | 0 mm | - | 35 W/m² | - |
| 1777861737 | 31.67° C | 24% | 1004.9 hPa | 0 mm | - | 43 W/m² | - |
| 1777861434 | 31.67° C | 23% | 1004.9 hPa | 0 mm | - | 52 W/m² | - |
| 1777861131 | 32.22° C | 23% | 1004.9 hPa | 0 mm | - | 63 W/m² | - |
| 1777860828 | 32.22° C | 23% | 1004.9 hPa | 0 mm | - | 73 W/m² | - |
| 1777860525 | 32.22° C | 23% | 1004.9 hPa | 0 mm | - | 83 W/m² | - |
| 1777860222 | 32.22° C | 23% | 1005 hPa | 0 mm | - | 95 W/m² | - |
| 1777859918 | 32.22° C | 23% | 1004.9 hPa | 0 mm | - | 106 W/m² | - |
| 1777859614 | 32.78° C | 23% | 1005.1 hPa | 0 mm | - | 117 W/m² | - |
| 1777859311 | 32.78° C | 21% | 1005.1 hPa | 0 mm | - | 129 W/m² | - |
* Rain latest hour (hover to see other rain measurements)
** Current wind speed in m/s (hover to see current wind gust speed)